Flag for Greece Weather past 2 weeks in Athens, Greece

Now
73 °F

Sunny.


Feels Like: 76 °F
Forecast: 67 / 89 °F
Wind: 5 mph from Northeast

Location: Elefsis Airport

Current Time: Sep 21, 2014 at 9:25:58 AM

Latest Report: Sep 21, 2014 at 8:50 AM


Visibility: 10 mi

Pressure: 29.98 "Hg

Humidity: 69%

Dew point: 63 °F

Location of AthensLocation

Historic Weather in Athens — Graph

°F

Athens temperature yesterday

Maximum temperature yesterday: 82 °F (at 1:50 PM)
Minimum temperature yesterday: 64 °F (at 4:50 AM)
Average temperature yesterday: 72 °F

Past Weeks' High & Low Weather Summary

 TemperatureHumidityPressure
High90 °F (Sep 12, 4:50 PM)100% (Sep 8, 12:50 AM)30.18 "Hg (Sep 8, 12:50 AM)
Low64 °F (Sep 11, 5:50 AM)27% (Sep 11, 4:20 PM)29.68 "Hg (Sep 6, 4:20 PM)
Average76 °F60%29.93 "Hg
* Reported Sep 6 7:20 AM — Sep 21 7:50 AM, Athens, Weather by CustomWeather, © 2014

Note: Actual official high and low records may vary slightly from our data, if they occured in-between our weather recording intervals... More about our weather records

Advertising

Athens weather history for previous 24 hours

 ConditionsComfort  
Time TempWeatherWind HumidityBarometerVisibility
7:50 AM
Sep 21
68 °FClear.No wind78%29.95 "Hg10 mi
7:20 AM68 °FClear.No wind78%29.95 "Hg10 mi
6:50 AM68 °FClear.No wind78%29.98 "Hg10 mi
6:20 AM68 °FClear.No wind78%29.98 "Hg10 mi
5:50 AM68 °FClear.No wind78%29.98 "Hg10 mi
4:50 AM68 °FClear.No wind78%29.92 "Hg10 mi
4:20 AM70 °FClear.No wind73%29.98 "Hg10 mi
3:50 AM70 °FClear.No wind73%29.98 "Hg10 mi
3:20 AM70 °FClear.No wind73%30.01 "Hg10 mi
2:50 AM70 °FClear.No wind73%30.01 "Hg10 mi
2:20 AM70 °FClear.No wind73%30.01 "Hg10 mi
1:50 AM70 °FClear.No wind73%30.01 "Hg10 mi
1:20 AM70 °FClear.No wind73%30.04 "Hg10 mi
12:50 AM70 °FClear.No wind73%30.04 "Hg10 mi
12:20 AM70 °FClear.No wind73%30.04 "Hg10 mi
11:50 PM
Sep 20
70 °FClear.No wind73%30.04 "Hg10 mi
10:50 PM72 °FClear.7 mph69%30.04 "Hg10 mi
10:20 PM73 °FClear.No wind65%30.07 "Hg10 mi
9:50 PM75 °FClear.No wind61%30.07 "Hg10 mi
9:20 PM75 °FClear.5 mph61%30.07 "Hg10 mi
8:50 PM75 °FClear.5 mph61%30.07 "Hg10 mi
4:20 PM82 °FScattered clouds.6 mph45%30.07 "HgN/A
3:50 PM82 °FScattered clouds.6 mph45%30.07 "HgN/A
3:20 PM81 °FPassing clouds.7 mph48%30.09 "HgN/A
2:50 PM81 °FScattered clouds.7 mph48%30.09 "HgN/A
2:20 PM82 °FSunny.8 mph42%30.09 "Hg10 mi
1:50 PM82 °FSunny.7 mph42%30.09 "Hg10 mi
12:50 PM81 °FSunny.No wind42%30.12 "Hg10 mi
12:20 PM81 °FSunny.6 mph45%30.15 "Hg10 mi
11:50 AM79 °FSunny.6 mph48%30.15 "Hg10 mi
11:20 AM79 °FSunny.No wind39%30.15 "Hg10 mi
10:50 AM79 °FSunny.No wind39%30.15 "Hg10 mi
10:20 AM77 °FSunny.No wind42%30.15 "Hg10 mi
9:50 AM77 °FSunny.No wind44%30.15 "Hg10 mi
9:20 AM73 °FSunny.No wind50%30.15 "Hg10 mi
Weather by CustomWeather, © 2014

See weather overviewHow to use our weather pages